When you browse on this site, cookies collect data to enhance your experience and personalize the content and advertising you see.
Visit our Privacy Policy to learn more. By continuing to use the site, you agree to this use of cookies and data.
  • în România
  • Lista ţărilor
  • Pe 7 zile
  • Temperatura apei
  • Hartă satelitară
  • Meteo pe hartă
  • Widget-uri
  • user-avatar
    Intrare

    Meteo pe oră la Lesnaya

    Astăzi, 17 Iulie, Miercuri

    Timp Temperatura Precipitaţii Vânt Presiune Umiditate
    00:00 +13°C° 0.1 mm 2 m/s 740 mmHg 99%
    01:00 +13°C° 0.1 mm 2 m/s 740 mmHg 99%
    02:00 +13°C° 0 mm 1 m/s 740 mmHg 99%
    03:00 +13°C° 0 mm 1 m/s 740 mmHg 99%
    04:00 +14°C° 0 mm 1 m/s 740 mmHg 98%
    05:00 +14°C° 0 mm 2 m/s 740 mmHg 98%
    06:00 +14°C° 0 mm 2 m/s 740 mmHg 97%
    07:00 +15°C° 0 mm 2 m/s 739 mmHg 96%
    08:00 +15°C° 0 mm 2 m/s 740 mmHg 95%
    09:00 +16°C° 0.1 mm 2 m/s 740 mmHg 92%
    10:00 +17°C° 0.1 mm 2 m/s 740 mmHg 89%
    11:00 +18°C° 0.1 mm 2 m/s 740 mmHg 86%
    12:00 +19°C° 0.6 mm 2 m/s 740 mmHg 86%
    13:00 +19°C° 0.6 mm 2 m/s 739 mmHg 86%
    14:00 +20°C° 0.6 mm 2 m/s 739 mmHg 85%
    15:00 +18°C° 0.7 mm 2 m/s 739 mmHg 89%
    16:00 +17°C° 0.7 mm 2 m/s 739 mmHg 92%
    17:00 +16°C° 0.7 mm 2 m/s 739 mmHg 95%
    18:00 +16°C° 0.1 mm 2 m/s 739 mmHg 96%
    19:00 +15°C° 0.1 mm 1 m/s 739 mmHg 97%
    20:00 +15°C° 0.1 mm 1 m/s 739 mmHg 97%
    21:00 +15°C° 0.2 mm 1 m/s 739 mmHg 98%
    22:00 +15°C° 0.2 mm 1 m/s 739 mmHg 98%
    23:00 +15°C° 0.2 mm 1 m/s 739 mmHg 98%

    Mâine, 18 Iulie, Joi

    Timp Temperatura Precipitaţii Vânt Presiune Umiditate
    00:00 +14°C° 0.1 mm 1 m/s 739 mmHg 98%
    01:00 +14°C° 0.1 mm 1 m/s 738 mmHg 99%
    02:00 +14°C° 0.1 mm 1 m/s 738 mmHg 99%
    03:00 +14°C° 0.1 mm 1 m/s 738 mmHg 99%
    04:00 +14°C° 0.1 mm 1 m/s 737 mmHg 99%
    05:00 +15°C° 0.1 mm 1 m/s 737 mmHg 98%
    06:00 +15°C° 0 mm 1 m/s 737 mmHg 97%
    07:00 +15°C° 0 mm 1 m/s 736 mmHg 96%
    08:00 +15°C° 0 mm 0 m/s 736 mmHg 95%
    09:00 +15°C° 0.3 mm 0 m/s 736 mmHg 93%
    10:00 +18°C° 0.3 mm 1 m/s 736 mmHg 92%
    11:00 +18°C° 0.3 mm 1 m/s 736 mmHg 91%
    12:00 +19°C° 0.7 mm 1 m/s 736 mmHg 87%
    13:00 +20°C° 0.7 mm 1 m/s 735 mmHg 84%
    14:00 +21°C° 0.7 mm 1 m/s 735 mmHg 80%
    15:00 +21°C° 0.6 mm 1 m/s 735 mmHg 81%
    16:00 +21°C° 0.6 mm 1 m/s 735 mmHg 81%
    17:00 +19°C° 0.6 mm 0 m/s 735 mmHg 82%
    18:00 +18°C° 0.3 mm 0 m/s 735 mmHg 85%
    19:00 +16°C° 0.3 mm 0 m/s 735 mmHg 88%
    20:00 +16°C° 0.3 mm 1 m/s 735 mmHg 91%
    21:00 +15°C° 0 mm 1 m/s 735 mmHg 92%
    22:00 +15°C° 0 mm 1 m/s 735 mmHg 93%
    23:00 +13°C° 0 mm 0 m/s 735 mmHg 94%

    Poimâine, 19 Iulie, Vineri

    Timp Temperatura Precipitaţii Vânt Presiune Umiditate
    00:00 +14°C° 0.1 mm 1 m/s 735 mmHg 95%
    01:00 +13°C° 0.1 mm 1 m/s 735 mmHg 96%
    02:00 +13°C° 0.1 mm 1 m/s 735 mmHg 96%
    03:00 +13°C° 0.2 mm 1 m/s 735 mmHg 97%
    04:00 +13°C° 0.2 mm 1 m/s 735 mmHg 97%
    05:00 +14°C° 0.2 mm 1 m/s 735 mmHg 98%
    06:00 +14°C° 0.7 mm 1 m/s 736 mmHg 97%
    07:00 +14°C° 0.7 mm 1 m/s 736 mmHg 97%
    08:00 +15°C° 0.7 mm 1 m/s 736 mmHg 97%
    09:00 +14°C° 0.7 mm 0 m/s 736 mmHg 97%
    10:00 +14°C° 0.7 mm 0 m/s 736 mmHg 97%
    11:00 +14°C° 0.7 mm 0 m/s 736 mmHg 97%
    12:00 +15°C° 0.1 mm 0 m/s 736 mmHg 92%
    13:00 +16°C° 0.1 mm 0 m/s 736 mmHg 86%
    14:00 +17°C° 0.1 mm 0 m/s 736 mmHg 81%
    15:00 +19°C° 0.2 mm 1 m/s 737 mmHg 79%
    16:00 +19°C° 0.2 mm 1 m/s 737 mmHg 77%
    17:00 +20°C° 0.2 mm 1 m/s 737 mmHg 75%
    18:00 +18°C° 0.2 mm 1 m/s 737 mmHg 81%
    19:00 +16°C° 0.2 mm 1 m/s 737 mmHg 87%
    20:00 +14°C° 0.2 mm 1 m/s 737 mmHg 93%
    21:00 +14°C° 0 mm 1 m/s 737 mmHg 94%
    22:00 +13°C° 0 mm 2 m/s 738 mmHg 95%
    23:00 +13°C° 0 mm 2 m/s 738 mmHg 96%

    20 Iulie, Sâmbătă

    Timp Temperatura Precipitaţii Vânt Presiune Umiditate
    00:00 +13°C° 0.1 mm 2 m/s 738 mmHg 96%
    01:00 +14°C° 0.1 mm 2 m/s 738 mmHg 97%
    02:00 +13°C° 0.1 mm 3 m/s 739 mmHg 98%
    03:00 +14°C° 0.3 mm 3 m/s 739 mmHg 97%
    04:00 +14°C° 0.3 mm 3 m/s 739 mmHg 97%
    05:00 +14°C° 0.3 mm 3 m/s 740 mmHg 97%
    06:00 +16°C° 0 mm 3 m/s 740 mmHg 95%
    07:00 +16°C° 0 mm 3 m/s 740 mmHg 94%
    08:00 +16°C° 0 mm 3 m/s 741 mmHg 93%
    09:00 +17°C° 0 mm 3 m/s 741 mmHg 88%
    10:00 +18°C° 0 mm 3 m/s 742 mmHg 84%
    11:00 +18°C° 0 mm 4 m/s 742 mmHg 80%
    12:00 +19°C° 0 mm 4 m/s 742 mmHg 78%
    13:00 +19°C° 0 mm 4 m/s 743 mmHg 75%
    14:00 +19°C° 0 mm 4 m/s 743 mmHg 73%
    15:00 +19°C° 0 mm 4 m/s 743 mmHg 75%
    16:00 +19°C° 0 mm 4 m/s 743 mmHg 77%
    17:00 +18°C° 0 mm 4 m/s 744 mmHg 79%
    18:00 +18°C° 0 mm 3 m/s 744 mmHg 82%
    19:00 +17°C° 0 mm 3 m/s 744 mmHg 86%
    20:00 +16°C° 0 mm 2 m/s 744 mmHg 89%
    21:00 +16°C° 0 mm 2 m/s 745 mmHg 92%
    22:00 +15°C° 0 mm 2 m/s 745 mmHg 94%
    23:00 +13°C° 0 mm 3 m/s 745 mmHg 97%

    21 Iulie, Duminică

    Timp Temperatura Precipitaţii Vânt Presiune Umiditate
    00:00 +13°C° 0 mm 3 m/s 745 mmHg 97%
    01:00 +14°C° 0 mm 2 m/s 745 mmHg 98%
    02:00 +14°C° 0 mm 2 m/s 746 mmHg 98%
    03:00 +14°C° 0 mm 2 m/s 746 mmHg 97%
    04:00 +13°C° 0 mm 2 m/s 746 mmHg 97%
    05:00 +13°C° 0 mm 2 m/s 746 mmHg 96%
    06:00 +15°C° 0 mm 2 m/s 746 mmHg 88%
    07:00 +16°C° 0 mm 2 m/s 746 mmHg 80%
    08:00 +18°C° 0 mm 2 m/s 747 mmHg 72%
    09:00 +19°C° 0 mm 3 m/s 747 mmHg 64%
    10:00 +20°C° 0 mm 3 m/s 747 mmHg 57%
    11:00 +21°C° 0 mm 3 m/s 747 mmHg 49%
    12:00 +22°C° 0 mm 3 m/s 747 mmHg 50%
    13:00 +22°C° 0 mm 3 m/s 747 mmHg 50%
    14:00 +24°C° 0 mm 3 m/s 747 mmHg 51%
    15:00 +22°C° 0.1 mm 3 m/s 747 mmHg 53%
    16:00 +22°C° 0.1 mm 3 m/s 747 mmHg 55%
    17:00 +21°C° 0.1 mm 3 m/s 747 mmHg 57%
    18:00 +19°C° 0 mm 2 m/s 747 mmHg 64%
    19:00 +17°C° 0 mm 2 m/s 747 mmHg 71%
    20:00 +15°C° 0 mm 1 m/s 747 mmHg 78%
    21:00 +14°C° 0 mm 1 m/s 747 mmHg 83%
    22:00 +13°C° 0 mm 1 m/s 747 mmHg 88%
    23:00 +11°C° 0 mm 0 m/s 747 mmHg 93%

    22 Iulie, Luni

    Timp Temperatura Precipitaţii Vânt Presiune Umiditate
    00:00 +12°C° 0 mm 1 m/s 747 mmHg 93%
    01:00 +12°C° 0 mm 1 m/s 747 mmHg 93%
    02:00 +12°C° 0 mm 1 m/s 747 mmHg 94%
    03:00 +12°C° 0 mm 1 m/s 748 mmHg 93%
    04:00 +13°C° 0 mm 1 m/s 748 mmHg 92%
    05:00 +13°C° 0 mm 1 m/s 748 mmHg 91%
    06:00 +15°C° 0 mm 2 m/s 748 mmHg 83%
    07:00 +17°C° 0 mm 2 m/s 748 mmHg 74%
    08:00 +18°C° 0 mm 2 m/s 748 mmHg 66%
    09:00 +19°C° 0 mm 2 m/s 748 mmHg 60%
    10:00 +21°C° 0 mm 2 m/s 748 mmHg 54%
    11:00 +23°C° 0 mm 2 m/s 748 mmHg 49%
    12:00 +23°C° 0 mm 2 m/s 748 mmHg 47%
    13:00 +24°C° 0 mm 3 m/s 748 mmHg 45%
    14:00 +24°C° 0 mm 3 m/s 747 mmHg 44%
    15:00 +24°C° 0 mm 3 m/s 747 mmHg 45%
    16:00 +24°C° 0 mm 3 m/s 747 mmHg 47%
    17:00 +23°C° 0 mm 2 m/s 747 mmHg 49%
    18:00 +20°C° 0 mm 2 m/s 747 mmHg 57%
    19:00 +18°C° 0 mm 2 m/s 747 mmHg 65%
    20:00 +16°C° 0 mm 1 m/s 747 mmHg 73%
    21:00 +15°C° 0 mm 1 m/s 748 mmHg 75%
    22:00 +14°C° 0 mm 1 m/s 748 mmHg 78%
    23:00 +12°C° 0 mm 2 m/s 748 mmHg 80%
    Arată mai mult